Glendive, MT

8:13 AM MDT on September 22, 2017 (GMT -0600)
Dawson Community

Weather History for KGDV - November, 2011

Change the Weather History Date:

Saturday, November 19, 2011

  Actual Average Record
Temperature  
Mean Temperature 4 °F -  
Max Temperature 8 °F 36 °F 64 °F (2003)
Min Temperature 1 °F 18 °F 1 °F (2011)
Degree Days  
Heating Degree Days 60    
Moisture  
Dew Point 0 °F    
Average Humidity 79    
Maximum Humidity 85    
Minimum Humidity 67    
Precipitation  
Precipitation 0.00 in - - ()
Sea Level Pressure  
Sea Level Pressure 30.02 in    
Wind  
Wind Speed 9 mph (NE)    
Max Wind Speed 16 mph    
Max Gust Speed 20 mph    
Visibility 7 miles    
Events      
Averages and records for this station are not official NWS values.
T = Trace of Precipitation, MM = Missing Value Source: NWS Daily Summary

Daily Weather History Graph

Daily Weather History Graph

Search for Another Location

Airport or City:

Trip Planner

Search our weather history database for the weather conditions in past years. The results will help you decide how hot, cold, wet, or windy it might be!

Date:

Astronomy

Nov. 19, 2011 Rise Set
Actual Time 7:08 AM MST 4:20 PM MST
Civil Twilight 6:34 AM MST 4:53 PM MST
Nautical Twilight 5:57 AM MST 5:31 PM MST
Astronomical Twilight 5:21 AM MST 6:07 PM MST
Moon 12:07 AM MST (11/19) 1:00 PM MST (11/19)
Length of Visible Light 10h 19m
Length of Day
9h 11m
Last Quarter, 37% of the Moon is Illuminated
Nov 19
Last Quarter
Nov 24
New
Dec 2
First Quarter
Dec 10
Full
Dec 17
Last Quarter

Hourly Weather History & Observations

Time (MST) Temp. Windchill Dew Point Humidity Pressure Visibility Wind Dir Wind Speed Gust Speed Precip Events Conditions
12:15 AM 3.2 °F -15.9 °F -2.2 °F 78% 29.92 in 10.0 mi NNE 16.1 mph - N/A   Overcast
12:35 AM 3.2 °F -10.3 °F -2.2 °F 78% 29.93 in 10.0 mi NNE 8.1 mph - N/A   Overcast
12:55 AM 3.2 °F -11.3 °F -2.2 °F 78% 29.95 in 10.0 mi North 9.2 mph - N/A   Overcast
1:15 AM 3.2 °F -11.3 °F -2.2 °F 78% 29.95 in 10.0 mi North 9.2 mph - N/A   Overcast
1:35 AM 1.4 °F -13.5 °F -2.2 °F 85% 29.95 in 10.0 mi North 9.2 mph - N/A   Overcast
1:55 AM 1.4 °F -14.5 °F -2.2 °F 85% 29.95 in 10.0 mi NNE 10.4 mph - N/A   Overcast
2:15 AM 1.4 °F -11.3 °F -2.2 °F 85% 29.96 in 10.0 mi NNE 6.9 mph - N/A   Overcast
2:35 AM 3.2 °F -11.3 °F -2.2 °F 78% 29.95 in 10.0 mi NNE 9.2 mph - N/A   Overcast
2:55 AM 3.2 °F -14.6 °F -2.2 °F 78% 29.94 in 10.0 mi NNE 13.8 mph - N/A   Overcast
3:15 AM 3.2 °F -15.9 °F -2.2 °F 78% 29.92 in 10.0 mi NNE 16.1 mph - N/A   Overcast
3:35 AM 3.2 °F -15.3 °F -2.2 °F 78% 29.93 in 10.0 mi NNE 15.0 mph - N/A   Overcast
3:55 AM 3.2 °F -14.6 °F -2.2 °F 78% 29.93 in 10.0 mi NNE 13.8 mph 19.6 mph N/A   Overcast
4:35 AM 3.2 °F -14.6 °F -2.2 °F 78% 29.93 in 10.0 mi NNE 13.8 mph - N/A   Overcast
4:55 AM 3.2 °F -12.2 °F -2.2 °F 78% 29.94 in 10.0 mi NNE 10.4 mph - N/A   Overcast
5:15 AM 3.2 °F -11.3 °F -2.2 °F 78% 29.96 in 10.0 mi NNE 9.2 mph - N/A   Overcast
5:35 AM 3.2 °F -10.3 °F -2.2 °F 78% 29.98 in 10.0 mi North 8.1 mph - N/A   Overcast
5:55 AM 3.2 °F -10.3 °F -0.4 °F 85% 30.00 in 10.0 mi North 8.1 mph - N/A   Overcast
6:15 AM 3.2 °F -10.3 °F -4.0 °F 72% 30.00 in 10.0 mi NNE 8.1 mph - N/A   Overcast
6:35 AM 3.2 °F -10.3 °F -2.2 °F 78% 30.01 in 10.0 mi NNE 8.1 mph - N/A   Overcast
7:15 AM 3.2 °F -10.3 °F -2.2 °F 78% 30.02 in 8.0 mi NE 8.1 mph - N/A   Overcast
7:35 AM 3.2 °F -13.1 °F -2.2 °F 78% 30.03 in 5.0 mi NNE 11.5 mph - N/A   Overcast
8:15 AM 3.2 °F -13.1 °F -2.2 °F 78% 30.04 in 3.0 mi NNE 11.5 mph - N/A   Overcast
8:35 AM 3.2 °F -11.3 °F -2.2 °F 78% 30.04 in 4.0 mi NNE 9.2 mph - N/A   Overcast
8:55 AM 3.2 °F -11.3 °F -0.4 °F 85% 30.04 in 1.8 mi NE 9.2 mph - N/A   Overcast
9:15 AM 3.2 °F -14.6 °F -0.4 °F 85% 30.03 in 1.2 mi ENE 13.8 mph - N/A   Overcast
9:35 AM 3.2 °F -12.2 °F -0.4 °F 85% 30.04 in 5.0 mi NE 10.4 mph - N/A   Overcast
9:55 AM 5.0 °F -6.9 °F -0.4 °F 78% 30.05 in 4.0 mi NE 6.9 mph - N/A   Overcast
10:15 AM 5.0 °F -9.1 °F -0.4 °F 78% 30.05 in 1.5 mi ENE 9.2 mph - N/A   Overcast
10:35 AM 5.0 °F -5.6 °F -0.4 °F 78% 30.06 in 1.0 mi NE 5.8 mph - N/A   Overcast
10:55 AM 5.0 °F -6.9 °F 1.4 °F 85% 30.05 in 1.8 mi NE 6.9 mph - N/A   Overcast
11:15 AM 6.8 °F -2.0 °F -0.4 °F 72% 30.04 in 1.0 mi East 4.6 mph - N/A   Overcast
11:35 AM 6.8 °F -0.1 °F 1.4 °F 79% 30.04 in 1.2 mi NE 3.5 mph - N/A   Overcast
11:55 AM 6.8 °F -2.0 °F 1.4 °F 79% 30.04 in 1.5 mi NE 4.6 mph - N/A   Overcast
12:15 PM 6.8 °F -2.0 °F 1.4 °F 79% 30.04 in 1.0 mi NE 4.6 mph - N/A   Overcast
12:55 PM 6.8 °F -3.5 °F 1.4 °F 79% 30.04 in 0.8 mi NE 5.8 mph - N/A   Overcast
1:15 PM 6.8 °F -0.1 °F -0.4 °F 72% 30.04 in 1.8 mi NE 3.5 mph - N/A   Overcast
1:35 PM 6.8 °F -2.0 °F 1.4 °F 79% 30.05 in 7.0 mi NE 4.6 mph - N/A   Overcast
1:55 PM 6.8 °F -0.1 °F 1.4 °F 79% 30.06 in 7.0 mi ENE 3.5 mph - N/A   Overcast
2:15 PM 8.6 °F - -0.4 °F 67% 30.06 in 8.0 mi Calm Calm - N/A   Overcast
2:35 PM 8.6 °F - 1.4 °F 73% 30.06 in 4.0 mi Calm Calm - N/A   Overcast
2:55 PM 8.6 °F - 1.4 °F 73% 30.06 in 6.0 mi Calm Calm - N/A   Overcast
3:35 PM 8.6 °F - 1.4 °F 73% 30.07 in 10.0 mi Calm Calm - N/A   Overcast
3:55 PM 8.6 °F - 1.4 °F 73% 30.07 in 10.0 mi Calm Calm - N/A   Overcast
4:15 PM 6.8 °F -3.5 °F 1.4 °F 79% 30.07 in 10.0 mi ENE 5.8 mph - N/A   Overcast
4:35 PM 6.8 °F -2.0 °F 1.4 °F 79% 30.07 in 10.0 mi ENE 4.6 mph - N/A   Overcast
4:55 PM 6.8 °F -0.1 °F 1.4 °F 79% 30.07 in 10.0 mi ENE 3.5 mph - N/A   Overcast
5:15 PM 6.8 °F - 3.2 °F 85% 30.08 in 9.0 mi Calm Calm - N/A   Overcast
5:35 PM 6.8 °F -3.5 °F 3.2 °F 85% 30.08 in 10.0 mi ENE 5.8 mph - N/A   Overcast
5:55 PM 6.8 °F -2.0 °F 3.2 °F 85% 30.08 in 10.0 mi ENE 4.6 mph - N/A   Overcast
6:15 PM 6.8 °F -2.0 °F 3.2 °F 85% 30.08 in 10.0 mi East 4.6 mph - N/A   Overcast
6:35 PM 6.8 °F -2.0 °F 3.2 °F 85% 30.08 in 10.0 mi ENE 4.6 mph - N/A   Overcast
6:55 PM 6.8 °F -0.1 °F 3.2 °F 85% 30.08 in 10.0 mi East 3.5 mph - N/A   Overcast
7:36 PM 6.8 °F -2.0 °F 1.4 °F 79% 30.07 in 10.0 mi East 4.6 mph - N/A   Overcast
7:55 PM 5.0 °F -4.1 °F -0.4 °F 78% 30.07 in 10.0 mi East 4.6 mph - N/A   Overcast
8:15 PM 5.0 °F -2.1 °F 1.4 °F 85% 30.07 in 10.0 mi East 3.5 mph - N/A   Scattered Clouds
8:55 PM 1.4 °F - 1.4 °F 100% 30.07 in 10.0 mi Calm Calm - N/A   Clear
9:15 PM 1.4 °F - -5.8 °F 72% 30.07 in 10.0 mi Calm Calm - N/A   Clear
9:35 PM -0.4 °F - -4.0 °F 85% 30.07 in 10.0 mi Calm Calm - N/A   Clear
9:55 PM 1.4 °F - -2.2 °F 85% 30.06 in 10.0 mi Calm Calm - N/A   Clear
10:15 PM 1.4 °F - -5.8 °F 72% 30.05 in 10.0 mi Calm Calm - N/A   Clear
10:35 PM 1.4 °F -6.2 °F -4.0 °F 78% 30.05 in 10.0 mi SSE 3.5 mph - N/A   Clear
10:55 PM 1.4 °F -6.2 °F -0.4 °F 92% 30.04 in 10.0 mi South 3.5 mph - N/A   Clear
11:15 PM -0.4 °F -12.0 °F -5.8 °F 78% 30.04 in 10.0 mi South 5.8 mph - N/A   Clear
11:35 PM -2.2 °F -12.5 °F -7.6 °F 78% 30.03 in 10.0 mi South 4.6 mph - N/A   Clear
11:55 PM -0.4 °F -14.7 °F -2.2 °F 92% 30.04 in 10.0 mi SSW 8.1 mph - N/A   Clear